| time (UTC) | temp F | wind direction | speed MPH | gust MPH | rain 1hr in | rain 24hr in | rain mn in | humidity % | barometer mb |
| 20260906011546 | 87 | 281 | 0.0 | 7.0 | 0.00 | 0.00 | 0.00 | 60 | 1014.5 |
| 20260906010113 | 89 | 281 | 0.0 | 10.0 | 0.00 | 0.00 | 0.00 | 59 | 1014.7 |
| 20260906004503 | 92 | 285 | 0.0 | 0.0 | 0.00 | 0.00 | 0.00 | 55 | 1014.5 |
| 20260906003029 | 93 | 285 | 0.0 | 1.0 | 0.00 | 0.00 | 0.00 | 52 | 1014.3 |
| 20260906001541 | 94 | 285 | 0.0 | 1.0 | 0.00 | 0.00 | 0.00 | 50 | 1014.4 |
| 20260905234510 | 97 | 285 | 0.0 | 5.0 | 0.00 | 0.00 | 0.00 | 45 | 1014.2 |
| 20260905233029 | 97 | 284 | 0.0 | 1.0 | 0.00 | 0.00 | 0.00 | 45 | 1014.2 |
| 20260905231538 | 99 | 285 | 0.0 | 5.0 | 0.00 | 0.00 | 0.00 | 42 | 1014.1 |
| 20260905230055 | 99 | 285 | 0.0 | 1.0 | 0.00 | 0.00 | 0.00 | 42 | 1014.1 |
| 20260905224509 | 99 | 284 | 0.0 | 3.0 | 0.00 | 0.00 | 0.00 | 41 | 1014.1 |
| 20260905223024 | 100 | 284 | 0.0 | 1.0 | 0.00 | 0.00 | 0.00 | 41 | 1014.2 |
| 20260905221546 | 100 | 285 | 1.0 | 11.0 | 0.00 | 0.00 | 0.00 | 41 | 1014.2 |
| 20260905220054 | 100 | 284 | 0.0 | 8.0 | 0.00 | 0.00 | 0.00 | 40 | 1014.1 |
| 20260905214510 | 101 | 286 | 1.0 | 10.0 | 0.00 | 0.00 | 0.00 | 39 | 1014.2 |
| 20260905213035 | 101 | 288 | 0.0 | 4.0 | 0.00 | 0.00 | 0.00 | 38 | 1014.3 |
| 20260905211538 | 100 | 288 | 0.0 | 3.0 | 0.00 | 0.00 | 0.00 | 39 | 1014.3 |
| 20260905210050 | 102 | 289 | 0.0 | 10.0 | 0.00 | 0.00 | 0.00 | 38 | 1014.5 |
| 20260905204502 | 102 | 288 | 0.0 | 4.0 | 0.00 | 0.00 | 0.00 | 38 | 1014.6 |
| 20260905203008 | 102 | 288 | 0.0 | 3.0 | 0.00 | 0.00 | 0.00 | 40 | 1014.8 |
| 20260905201521 | 102 | 294 | 0.0 | 2.0 | 0.00 | 0.00 | 0.00 | 39 | 1015.0 |
| 20260905200047 | 101 | 293 | 0.0 | 4.0 | 0.00 | 0.00 | 0.00 | 38 | 1015.4 |
| 20260905194537 | 101 | 293 | 0.0 | 0.0 | 0.00 | 0.00 | 0.00 | 39 | 1015.6 |
| 20260905193105 | 100 | 293 | 0.0 | 1.0 | 0.00 | 0.00 | 0.00 | 40 | 1015.7 |
| 20260905191510 | 99 | 293 | 0.0 | 0.0 | 0.00 | 0.00 | 0.00 | 43 | 1015.7 |
| 20260905190032 | 100 | 294 | 0.0 | 0.0 | 0.00 | 0.00 | 0.00 | 41 | 1016.1 |
| 20260905184536 | 100 | 294 | 0.0 | 7.0 | 0.00 | 0.00 | 0.00 | 43 | 1016.3 |
| 20260905183042 | 98 | 293 | 0.0 | 2.0 | 0.00 | 0.00 | 0.00 | 45 | 1016.5 |
| 20260905181550 | 101 | 293 | 0.0 | 3.0 | 0.00 | 0.00 | 0.00 | 41 | 1016.9 |
| 20260905180100 | 101 | 293 | 0.0 | 1.0 | 0.00 | 0.00 | 0.00 | 42 | 1017.0 |
| 20260905174508 | 101 | 293 | 0.0 | 1.0 | 0.00 | 0.00 | 0.00 | 43 | 1017.1 |
| 20260905173029 | 99 | 293 | 0.0 | 2.0 | 0.00 | 0.00 | 0.00 | 46 | 1017.2 |
| 20260905171535 | 98 | 293 | 0.0 | 1.0 | 0.00 | 0.00 | 0.00 | 49 | 1017.2 |
| 20260905170047 | 97 | 293 | 0.0 | 1.0 | 0.00 | 0.00 | 0.00 | 49 | 1017.4 |
| 20260905164547 | 95 | 293 | 0.0 | 3.0 | 0.00 | 0.00 | 0.00 | 51 | 1017.6 |
| 20260905163049 | 96 | 293 | 0.0 | 1.0 | 0.00 | 0.00 | 0.00 | 51 | 1017.8 |
| 20260905161552 | 95 | 293 | 0.0 | 1.0 | 0.00 | 0.00 | 0.00 | 53 | 1017.9 |
| 20260905160005 | 95 | 292 | 0.0 | 0.0 | 0.00 | 0.00 | 0.00 | 54 | 1018.2 |
| 20260905154502 | 92 | 292 | 0.0 | 1.0 | 0.00 | 0.00 | 0.00 | 56 | 1018.2 |
| 20260905153015 | 88 | 292 | 0.0 | 0.0 | 0.00 | 0.00 | 0.00 | 68 | 1018.2 |
| 20260905151526 | 86 | 292 | 0.0 | 0.0 | 0.00 | 0.00 | 0.00 | 71 | 1018.4 |
| 20260905150032 | 85 | 292 | 0.0 | 0.0 | 0.00 | 0.00 | 0.00 | 72 | 1018.3 |
| 20260905144541 | 84 | 291 | 0.0 | 1.0 | 0.00 | 0.00 | 0.00 | 74 | 1018.4 |
| 20260905143047 | 82 | 291 | 0.0 | 0.0 | 0.00 | 0.00 | 0.00 | 79 | 1018.4 |
| 20260905141537 | 81 | 291 | 0.0 | 0.0 | 0.00 | 0.00 | 0.00 | 81 | 1018.3 |
| 20260905140051 | 80 | 292 | 0.0 | 1.0 | 0.00 | 0.00 | 0.00 | 82 | 1018.3 |
| 20260905134608 | 79 | 292 | 0.0 | 0.0 | 0.00 | 0.00 | 0.00 | 83 | 1018.3 |
| 20260905133011 | 78 | 291 | 0.0 | 0.0 | 0.00 | 0.00 | 0.00 | 85 | 1018.3 |
| 20260905131538 | 77 | 292 | 0.0 | 1.0 | 0.00 | 0.00 | 0.00 | 85 | 1018.4 |
| 20260905130028 | 77 | 291 | 0.0 | 0.0 | 0.00 | 0.00 | 0.00 | 85 | 1018.4 |
| 20260905124543 | 77 | 291 | 0.0 | 0.0 | 0.00 | 0.00 | 0.00 | 85 | 1018.5 |
| 20260905123050 | 76 | 291 | 0.0 | 0.0 | 0.00 | 0.00 | 0.00 | 85 | 1018.4 |
| 20260905121555 | 75 | 291 | 0.0 | 0.0 | 0.00 | 0.00 | 0.00 | 85 | 1018.4 |
| 20260905120104 | 75 | 292 | 0.0 | 0.0 | 0.00 | 0.00 | 0.00 | 85 | 1018.1 |
| 20260905114513 | 75 | 292 | 0.0 | 0.0 | 0.00 | 0.00 | 0.00 | 84 | 1018.0 |
| 20260905113033 | 74 | 291 | 0.0 | 0.0 | 0.00 | 0.00 | 0.00 | 84 | 1017.8 |
| 20260905111552 | 74 | 291 | 0.0 | 0.0 | 0.00 | 0.00 | 0.00 | 84 | 1017.5 |
| 20260905110055 | 75 | 292 | 0.0 | 0.0 | 0.00 | 0.00 | 0.00 | 84 | 1017.3 |
| 20260905104602 | 75 | 291 | 0.0 | 0.0 | 0.00 | 0.00 | 0.00 | 85 | 1017.3 |
| 20260905103021 | 75 | 292 | 0.0 | 0.0 | 0.00 | 0.00 | 0.00 | 85 | 1017.0 |
| 20260905101522 | 75 | 291 | 0.0 | 0.0 | 0.00 | 0.00 | 0.00 | 85 | 1017.0 |
| 20260905100030 | 75 | 291 | 0.0 | 0.0 | 0.00 | 0.00 | 0.00 | 85 | 1016.8 |
| 20260905094539 | 76 | 292 | 0.0 | 0.0 | 0.00 | 0.00 | 0.00 | 85 | 1016.9 |
| 20260905093051 | 76 | 291 | 0.0 | 0.0 | 0.00 | 0.00 | 0.00 | 85 | 1016.8 |
| 20260905091505 | 76 | 291 | 0.0 | 0.0 | 0.00 | 0.00 | 0.00 | 85 | 1016.8 |
| 20260905090024 | 76 | 292 | 0.0 | 0.0 | 0.00 | 0.00 | 0.00 | 85 | 1016.7 |
| 20260905084528 | 76 | 292 | 0.0 | 1.0 | 0.00 | 0.00 | 0.00 | 85 | 1016.8 |
| 20260905083038 | 77 | 292 | 0.0 | 0.0 | 0.00 | 0.00 | 0.00 | 85 | 1016.8 |
| 20260905081603 | 78 | 292 | 0.0 | 1.0 | 0.00 | 0.00 | 0.00 | 84 | 1016.8 |
| 20260905080008 | 78 | 292 | 0.0 | 0.0 | 0.00 | 0.00 | 0.00 | 82 | 1016.9 |
| 20260905074521 | 79 | 291 | 0.0 | 0.0 | 0.00 | 0.00 | 0.00 | 81 | 1017.0 |
| 20260905073033 | 79 | 292 | 0.0 | 0.0 | 0.00 | 0.00 | 0.00 | 80 | 1017.0 |
| 20260905071556 | 79 | 292 | 0.0 | 0.0 | 0.00 | 0.00 | 0.00 | 81 | 1017.0 |
| 20260905070003 | 78 | 292 | 0.0 | 0.0 | 0.00 | 0.00 | 0.00 | 82 | 1017.0 |
| 20260905064528 | 78 | 291 | 0.0 | 0.0 | 0.00 | 0.00 | 0.00 | 81 | 1017.1 |
| 20260905063047 | 78 | 291 | 0.0 | 0.0 | 0.00 | 0.00 | 0.00 | 81 | 1017.0 |
| 20260905061604 | 78 | 292 | 0.0 | 0.0 | 0.00 | 0.00 | 0.00 | 82 | 1017.1 |
| 20260905060057 | 79 | 291 | 0.0 | 0.0 | 0.00 | 0.00 | 0.00 | 82 | 1017.0 |
| 20260905054507 | 79 | 291 | 0.0 | 0.0 | 0.00 | 0.00 | 0.00 | 81 | 1017.0 |
| 20260905053030 | 80 | 291 | 0.0 | 0.0 | 0.00 | 0.00 | 0.00 | 79 | 1017.0 |
| 20260905051533 | 80 | 291 | 0.0 | 0.0 | 0.00 | 0.00 | 0.00 | 77 | 1017.1 |
| 20260905050039 | 80 | 292 | 0.0 | 0.0 | 0.00 | 0.00 | 0.00 | 77 | 1017.1 |
| 20260905044548 | 80 | 291 | 0.0 | 0.0 | 0.00 | 0.00 | 0.00 | 78 | 1017.4 |
| 20260905043059 | 81 | 292 | 0.0 | 0.0 | 0.00 | 0.00 | 0.00 | 76 | 1017.4 |
| 20260905041506 | 81 | 292 | 0.0 | 0.0 | 0.00 | 0.00 | 0.00 | 75 | 1017.4 |
| 20260905040021 | 81 | 292 | 0.0 | 0.0 | 0.00 | 0.00 | 0.00 | 75 | 1017.4 |
| 20260905034517 | 81 | 291 | 0.0 | 1.0 | 0.00 | 0.00 | 0.00 | 75 | 1017.4 |
| 20260905033035 | 82 | 292 | 0.0 | 2.0 | 0.00 | 0.00 | 0.00 | 75 | 1017.5 |
| 20260905031539 | 82 | 291 | 0.0 | 0.0 | 0.00 | 0.00 | 0.00 | 75 | 1017.6 |
| 20260905030120 | 82 | 292 | 0.0 | 0.0 | 0.00 | 0.00 | 0.00 | 74 | 1017.8 |
| 20260905024526 | 82 | 291 | 0.0 | 1.0 | 0.00 | 0.00 | 0.00 | 73 | 1017.8 |
| 20260905023015 | 83 | 292 | 0.0 | 0.0 | 0.00 | 0.00 | 0.00 | 72 | 1017.9 |
| 20260905021529 | 83 | 291 | 0.0 | 2.0 | 0.00 | 0.00 | 0.00 | 70 | 1017.9 |
| 20260905020052 | 84 | 292 | 0.0 | 0.0 | 0.00 | 0.00 | 0.00 | 69 | 1017.8 |
| 20260905014548 | 85 | 292 | 0.0 | 0.0 | 0.00 | 0.00 | 0.00 | 68 | 1017.6 |
| 20260905013008 | 86 | 292 | 0.0 | 1.0 | 0.00 | 0.00 | 0.00 | 66 | 1017.5 |